Location: *
(34.6903°N, 135.5184°E)
Time: 03:36:03
(UTC+00:00)

CZ-3C R/B - Pass Details

Date: 22 September 2019
Orbit: 294 x 33629 km, 20.8° (Epoch: 22 October)

Event Time Altitude Azimuth Distance (km) Brightness Sun altitude
Exits shadow 20:10:56 - 215° (SW) 1,882 3.2 -8.0°
Reaches altitude 10° 20:13:04 10° 176° (S) 1,696 3.3 -7.6°
Maximum altitude 20:14:06 11° 158° (SSE) 1,887 3.8 -7.4°
Drops below altitude 10° 20:15:25 10° 141° (SE) 2,319 4.5 -7.1°
Sets 20:23:07 0° 110° (ESE) 5,778 7.4 -5.5°
